Change the Weather History Date:

Sunday, April 6, 2014

  Actual Average Record
Temperature  
Mean Temperature 50 °F 46 °F  
Max Temperature 64 °F 61 °F 88 °F (1991)
Min Temperature 36 °F 32 °F 8 °F (1936)
Degree Days  
Heating Degree Days 15 19  
Month to date heating degree days 137 117  
Since 1 July heating degree days 5449 5292  
Cooling Degree Days 0 0  
Month to date cooling degree days 0 0  
Year to date cooling degree days 0 0  
Moisture  
Dew Point 32 °F    
Average Humidity 63    
Maximum Humidity 100    
Minimum Humidity 25    
Precipitation  
Precipitation 0.00 in 0.04 in 0.30 in (1953)
Month to date precipitation 0.15 0.25  
Year to date precipitation 1.51 2.19  
Snow  
Snow 0.00 in 0.20 in - ()
Month to date snowfall T 1.3  
Since 1 July snowfall 28.7 32.1  
Snow Depth 0.00 in    
Sea Level Pressure  
Sea Level Pressure 29.82 in    
Wind  
Wind Speed 13 mph (NW)    
Max Wind Speed 31 mph    
Max Gust Speed 37 mph    
Visibility 9 miles    
Events      
T = Trace of Precipitation, MM = Missing Value Source: NWS Daily Summary

Daily Weather History Graph

Daily Weather History Graph

Search for Another Location

Airport or City:

Trip Planner

Search our weather history database for the weather conditions in past years. The results will help you decide how hot, cold, wet, or windy it might be!

Date:

Astronomy

Apr. 06, 2014 Rise Set
Actual Time 6:23 AM MDT 7:15 PM MDT
Civil Twilight 5:56 AM MDT 7:42 PM MDT
Nautical Twilight 5:23 AM MDT 8:15 PM MDT
Astronomical Twilight 4:50 AM MDT 8:48 PM MDT
Moon 11:27 AM MDT (4/6) 1:12 AM MDT (4/6)
Length of Visible Light 13h 46m
Length of Day
12h 52m
Waxing Crescent, 44% of the Moon is Illuminated
Apr 6
Waxing Crescent
Apr 7
First Quarter
Apr 15
Full
Apr 22
Last Quarter
Apr 29
New

Hourly Weather History & Observations

Time (MDT) Temp. Windchill Dew Point Humidity Pressure Visibility Wind Dir Wind Speed Gust Speed Precip Events Conditions
12:53 AM 41.0 °F 33.5 °F 37.9 °F 89% 29.88 in 10.0 mi South 13.8 mph - N/A   Partly Cloudy
1:53 AM 41.0 °F 32.5 °F 37.9 °F 89% 29.86 in 10.0 mi South 17.3 mph - N/A   Clear
2:53 AM 39.9 °F 31.4 °F 37.0 °F 89% 29.85 in 10.0 mi SSW 16.1 mph - N/A   Clear
3:53 AM 39.0 °F 31.0 °F 35.1 °F 86% 29.84 in 10.0 mi SSW 13.8 mph - N/A   Clear
4:53 AM 37.9 °F 29.2 °F 35.1 °F 89% 29.84 in 10.0 mi SSW 15.0 mph - N/A   Clear
5:53 AM 37.0 °F 28.1 °F 34.0 °F 89% 29.85 in 10.0 mi SW 15.0 mph - N/A   Clear
6:53 AM 36.0 °F 28.0 °F 34.0 °F 93% 29.88 in 10.0 mi SW 11.5 mph - N/A   Clear
7:46 AM 36.0 °F 27.5 °F 35.1 °F 97% 29.88 in 5.0 mi SW 12.7 mph - N/A   Scattered Clouds
7:53 AM 37.0 °F 28.1 °F 36.0 °F 96% 29.88 in 4.0 mi SW 15.0 mph - N/A   Mostly Cloudy
8:26 AM 41.0 °F 33.9 °F 37.9 °F 89% 29.87 in 10.0 mi SW 12.7 mph - N/A   Scattered Clouds
8:53 AM 46.0 °F 39.6 °F 37.9 °F 73% 29.84 in 10.0 mi WSW 15.0 mph - N/A   Clear
9:53 AM 53.1 °F - 36.0 °F 52% 29.83 in 10.0 mi NW 8.1 mph - N/A   Clear
10:53 AM 55.9 °F - 30.0 °F 37% 29.82 in 10.0 mi North 10.4 mph - N/A   Clear
11:48 AM 59.0 °F - 28.4 °F 31% 29.83 in 1.2 mi North 8.1 mph - N/A   Haze
11:53 AM 60.1 °F - 30.0 °F 32% 29.78 in 10.0 mi North 8.1 mph - N/A   Clear
12:53 PM 63.0 °F - 30.0 °F 29% 29.76 in 10.0 mi North 12.7 mph 21.9 mph N/A   Clear
1:53 PM 62.1 °F - 26.1 °F 25% 29.74 in 10.0 mi NE 8.1 mph - N/A   Mostly Cloudy
2:22 PM 60.1 °F - 30.9 °F 33% 29.78 in 10.0 mi NNW 27.6 mph 34.5 mph N/A   Overcast
2:53 PM 57.9 °F - 30.9 °F 36% 29.75 in 10.0 mi North 24.2 mph 33.4 mph N/A   Mostly Cloudy
3:53 PM 60.1 °F - 30.0 °F 32% 29.74 in 10.0 mi NNE 17.3 mph 27.6 mph N/A   Overcast
4:53 PM 61.0 °F - 27.0 °F 27% 29.74 in 10.0 mi NNE 15.0 mph 20.7 mph N/A   Mostly Cloudy
5:53 PM 59.0 °F - 28.0 °F 31% 29.75 in 10.0 mi NNW 12.7 mph - N/A   Clear
6:53 PM 54.0 °F - 30.0 °F 40% 29.79 in 10.0 mi NNW 15.0 mph 25.3 mph N/A   Partly Cloudy
7:53 PM 45.0 °F 41.8 °F 28.9 °F 53% 29.83 in 10.0 mi North 5.8 mph - N/A   Scattered Clouds
8:53 PM 42.1 °F 40.2 °F 28.9 °F 60% 29.85 in 10.0 mi NNW 3.5 mph - N/A   Partly Cloudy
9:53 PM 46.9 °F - 28.9 °F 50% 29.85 in 10.0 mi North 11.5 mph - N/A   Mostly Cloudy
10:53 PM 46.0 °F 40.2 °F 30.9 °F 56% 29.84 in 10.0 mi North 12.7 mph - N/A   Overcast
11:53 PM 41.0 °F 33.5 °F 32.0 °F 70% 29.84 in 10.0 mi NW 13.8 mph - N/A   Clear